Terminal Aerodrome Forecast
Issued by NWS

Home | Current Version | Previous Version | Text Only | Print | Product List | Glossary On
Versions: 1 2 3 4 5 6 7 8 9 10 11 12 13 14 15 16 17 18 19 20 21 22 23
000
FTUS44 KLIX 302300 RRA
TAFHUM
TAF
KHUM 302343Z 3100/3124 14007KT P6SM VCSH SCT030 BKN120
      TEMPO 3100/3102 2SM TSRA BKN020CB
     FM310300 19007KT P6SM BKN090
     FM310500 18006KT P6SM BKN200
     FM311000 14004KT P6SM BKN150
     FM311400 14006KT P6SM BKN250=

USA.gov is the U.S. government's official web portal to all federal, state and local government web resources and services.